Hourly Data Report for September 19, 2021

TORONTO CITY
ONTARIO
Current Station Operator: ECCC - MSC

43°40'00.000" N
79°24'00.000" W
112.50 m
6158355
71508
XTO

Download Data

Hourly Data (September 2021)
Hourly Data Report for September 19, 2021
TIME
LST
Temp Definition
°C
Dew Point Definition
°C
Rel Hum Definition
%
Precip. Amount Definition
mm

Wind Dir Definition
10's deg

Wind Spd Definition
km/h
Visibility Definition
km
Stn Press Definition
kPa
Hmdx Definition


Wind Chill Definition


Weather Definition


00:00 15.4 9.8 70 0.0       100.93     LegendNANA
01:00 14.4 10.0 75 0.0       100.95     LegendNANA
02:00 15.0 9.2 68 0.0       100.96     LegendNANA
03:00 14.5 8.8 69 0.0       100.95     LegendNANA
04:00 14.6 8.2 65 0.0       100.97     LegendNANA
05:00 14.5 7.9 65 0.0       101.03     LegendNANA
06:00 14.2 7.9 66 0.0       101.07     LegendNANA
07:00 14.5 8.2 66 0.0       101.13     LegendNANA
08:00 16.0 9.3 64 0.0       101.13     LegendNANA
09:00 18.0 10.7 62 0.0       101.19     LegendNANA
10:00 19.1 11.1 60 0.0       101.20     LegendNANA
11:00 19.4 9.2 52 0.0       101.18     LegendNANA
12:00 19.7 11.8 60 0.0       101.14     LegendNANA
13:00 20.7 12.6 60 0.0       101.08     LegendNANA
14:00 20.2 10.6 54 0.0       101.00     LegendNANA
15:00 20.5 9.2 48 0.0       100.98     LegendNANA
16:00 20.2 8.3 46 0.0       100.93     LegendNANA
17:00 20.1 7.7 45 0.0       100.89     LegendNANA
18:00 19.2 9.0 52 0.0       100.90     LegendNANA
19:00 18.3 9.1 55 0.0       100.89     LegendNANA
20:00 18.0 10.9 63 0.0       100.94     LegendNANA
21:00 17.9 11.3 65 0.0       100.92     LegendNANA
22:00 17.8 12.2 70 0.0       100.92     LegendNANA
23:00 17.5 11.2 66 0.0       100.90     LegendNANA

Notes on Data Quality.

Legend

  • E = Estimated
  • M = Missing
  • NA = Not Available*
  • [empty] = Indicates an unobserved value
Date modified: